User: anonymous   Login
Location: Lamoine Observatory
(44.4551°N, 68.3470°W)
Time: 12:35:53
(UTC-04:00)
Language:

Cosmos 1674 Rocket - Orbit

View from above orbital plane
View from above orbital plane
View from above satellite
View from above satellite

Ground track
Ground track

The orbit data is extracted from the following two-line orbital elements,

1 15945U 85069B   17202.20497573 +.00000070 +00000-0 +54775-5 0  9991
2 15945 082.5285 101.1696 0020067 165.5556 194.6237 14.83930447726075
Epoch (UTC): 21 July 2017 04:55:09
Eccentricity: 0.0020067
inclination: 82.5285°
perigee height: 603 km
apogee height: 631 km
right ascension of ascending node: 101.1696°
argument of perigee: 165.5556°
revolutions per day: 14.83930447
mean anomaly at epoch: 194.6237°
orbit number at epoch: 72607

The dashed part of the orbit path shows where the satellite is in the earth's shadow,  

DLR